Regional Weather Roundup
Issued by NWS

Home | Current Version | Previous Version | Graphics & Text | Print | Product List | Glossary On
Versions: 1 2 3 4 5 6 7 8 9 10 11 12 13 14 15 16 17 18 19 20 21 22 23 24 25 26 27 28 29 30 31 32 33 34 35 36 37 38 39 40 41 42 43 44 45 46 47 48 49 50
000
ASUS44 KMEG 050410
RWRTN
TENNESSEE HOURLY STATE WEATHER ROUNDUP
NATIONAL WEATHER SERVICE MEMPHIS TN
1100 PM CDT TUE AUG 04 2015

TNZ002-004-019-021-049-052-054-088>092-050500-
WEST TENNESSEE

CITY           SKY/WX    TMP DP  RH WIND       PRES   REMARKS
MEMPHIS INTL   MOCLDY    88  68  51 E5        29.99R HX  91
NWS MEMPHIS      N/A     81 N/A N/A MISG        N/A
JACKSON        CLOUDY    80  75  84 CALM      30.00S
DYERSBURG        N/A    N/A N/A N/A MISG        N/A
UNION CITY     CLEAR     77  77 100 CALM      29.99R
PARIS          CLEAR     75  72  88 E3        30.02R
LEXINGTON      CLEAR     75  75 100 CALM      30.00S
$$

TNZ008-025-027-028-033-062-065-066-050500-
NORTH MIDDLE TENNESSEE

CITY           SKY/WX    TMP DP  RH WIND       PRES   REMARKS
NASHVILLE      CLOUDY    83  70  64 N7        30.03R
CLARKSVILLE    CLOUDY    75  67  76 SE3       30.02F
SMYRNA         CLOUDY    78  72  82 CALM      30.03S
COOKEVILLE     CLEAR     75  75 100 CALM      30.05S
CROSSVILLE     PTCLDY    75  69  81 NE5       30.12S
$$

TNZ061-075-076-078-094-096-097-050500-
SOUTH MIDDLE TENNESSEE

CITY           SKY/WX    TMP DP  RH WIND       PRES   REMARKS
FAYETTEVILLE     N/A     79  66  65 CALM      30.04S
TULLAHOMA      CLEAR     77  70  78 CALM      30.07R
WINCHESTER     CLEAR     75  72  88 CALM      30.05S
MCMINNVILLE    CLEAR     75  75 100 CALM      30.06R
COLUMBIA       CLEAR     79  79 100 CALM      30.02S
SHELBYVILLE    CLEAR     77  73  88 CALM      30.05R
$$

TNZ017-018-042-046-047-050500-
NORTHEAST TENNESSEE

CITY           SKY/WX    TMP DP  RH WIND       PRES   REMARKS
TRI CITIES     MOCLDY    69  68  96 CALM      30.10R FOG
ELIZABETHTON   CLEAR     63  63 100 CALM      30.12R
$$

TNZ012-013-036-069-073-074-050500-
CENTRAL EAST TENNESSEE

CITY           SKY/WX    TMP DP  RH WIND       PRES   REMARKS
KNOXVILLE      MOCLDY    79  67  66 N8        30.05R
OAK RIDGE      MOCLDY    79  70  74 CALM      30.08R
GATLINBURG     CLEAR     75  63  64 E5        30.06R
MORRISTOWN     CLEAR     70  66  88 CALM      30.10R
$$

TNZ083-085-099-050500-
SOUTHEAST TENNESSEE

CITY           SKY/WX    TMP DP  RH WIND       PRES   REMARKS
CHATTANOOGA    MOCLDY    82  73  74 NW3       30.03R
$$

SKY/WX REPORTED AS FAIR MEANS FEW OR NO CLOUDS BELOW
12 THOUSAND FEET.




USA.gov is the U.S. government's official web portal to all federal, state and local government web resources and services.